铱星星座 914星 (IRIDIUM 914)

导读 | 星芒AI

IRIDIUM 914 是 Iridium 卫星通信系统的一部分,属于第一代 Iridium 卫星星座。该卫星由摩托罗拉制造,于1997年发射,运行在低地球轨道,用于提供全球范围的移动语音和数据通信服务。Iridium 系统采用66颗卫星组成网格状网络,支持手持终端在任何地点进行通信。IRIDIUM 914 在系统运营初期发挥了关键作用,但随着 Iridium Next 新一代卫星的部署,该卫星已退役。

基本信息
目录编号:
24836
目录名称:
IRIDIUM 914
国际标识:
1997-030A
轨道中心:
EARTH
卫星名称:
铱星星座 914星
卫星全名:
铱星星座 914星 (IRIDIUM 914)
卫星状态:
在轨 (已飞行10360 天)
发射日期:
1997-06-18 UTC
国别 :
美国 (US)
星等 :
--
轨道信息
数据来源 国际轨道数据 AOE轨道数据
星历时间 2025-10-28T19:54:50+0800
19小时前
查看轨道信息
2025-10-24T18:00:00+0800
4天前
查看轨道信息
半长轴 7133.338km 7133.355km
偏心率 0.0003346 0.0002915
轨道倾角 86.391° 86.390°
近地点辐角 109.353° 113.624°
升交点赤经 126.075° 127.798°
平近点角 250.803° 335.946°
近地点 752.816km 753.14km
远地点 757.59km 757.3km
周期 99.931分钟 99.931分钟
每日圈数 14.409986 14.409937
详细信息
平衡模式:
三轴稳定
覆盖范围:
全球
运营商:
铱星通信公司
运营商所在国:
美国
使用方式:
暂无
卫星简介
铱星(Iridium)是由共66个运作中的通信卫星组成的卫星通信系统。这个系统原本规划77个通信卫星,所以用原子序数为77的铱元素来命名。铱卫星允许人们使用手持型电子设备进行全球性的语音及数据通讯。该卫星已退役。
2D轨道图
3D轨道图
轨道高度分析图
轨道倾角分析图
轨道综合分析图
查看轨道综合分析图